Regional Weather Roundup
Issued by NWS

Home | Current Version | Previous Version | Text Only | Print | Product List | Glossary Off
Versions: 1 2 3 4 5 6 7 8 9 10 11 12 13 14 15 16 17 18 19 20 21 22 23 24 25 26 27 28 29 30 31 32 33 34 35 36 37 38 39 40 41 42 43 44 45 46 47 48 49 50

000
ASUS43 KIND 061309
RWRIN

WEATHER ROUNDUP FOR INDIANA
NATIONAL WEATHER SERVICE INDIANAPOLIS IN
900 AM EDT WED MAY 06 2015

NOTE: "FAIR" INDICATES FEW OR NO CLOUDS BELOW 12,000 FEET WITH NO
SIGNIFICANT WEATHER AND/OR OBSTRUCTIONS TO VISIBILITY.

* - STATION DOES NOT REPORT WEATHER SUCH AS PRECIPITATION OR FOG.

+ - STATION NOT QUALITY CONTROLLED BY THE NATIONAL WEATHER SERVICE.
    USE DATA WITH CAUTION...ESPECIALLY DEWPOINT AND RELATIVE
    HUMIDITY OBSERVATIONS.

INZ001>003-010>013-019-020-061400-
NORTHWEST INDIANA

CITY           SKY/WX    TMP DP  RH WIND       PRES   REMARKS
GARY /AIRPORT/ CLOUDY    55 N/A N/A CALM      30.19R FOG
KNOX *+        CLOUDY    54  50  87 E6        30.20S VSB 3/4
LA PORTE +     CLOUDY    58  58 100 E7        30.21S FOG
MICHIGAN CITY+ PTSUNNY   55  55 100 SE3       30.20S FOG
MONTICELLO +   MOSUNNY   60  57  91 E3        30.19S FOG
VALPARAISO     CLOUDY    56  55  97 E7        30.21R FOG

$$

LMZ046-743>745-061400-
SOUTHERN LAKE MICHIGAN

STATION/POSITION TIME  TEMP    WIND        PRES    WAVE
                       AIR SEA DIR/SP/G            HT
                 (UTC) (F)     (DEG/KT/KT) (MB)    (FT)
BURNS HARBOR     1300   59     160/  3/  6 1023.0S
MICHIGAN CITY    1300   57     120/  6/  8   N/A
5NW MICH CITY    1300   54 51  160/  4/  6   N/A     1

$$

INZ004-005-014>016-021>024-061400-
NORTH CENTRAL INDIANA

CITY           SKY/WX    TMP DP  RH WIND       PRES   REMARKS
ELKHART        CLOUDY    55  55 100 SE8       30.23R FOG
GOSHEN         CLOUDY    55  53  93 E7        30.22S FOG
LOGANSPORT +   MOSUNNY   55  54  94 E7        30.21S FOG
PERU/GRISSOM   PTSUNNY   57  55  93 E6        30.20R FOG
ROCHESTER +    FOG       55 N/A N/A E6        30.22S VSB 3/4
SOUTH BEND     CLOUDY    56  54  93 E9        30.22S FOG
WARSAW +       FOG       54  54 100 E6        30.22S VSB 1

$$

INZ006>009-017-018-025>027-061400-
NORTHEAST INDIANA

CITY           SKY/WX    TMP DP  RH WIND       PRES   REMARKS
ANGOLA *+      CLOUDY    54  43  66 SE5       30.23S VSB 3/4
AUBURN +       FOG       54  52  94 E6        30.25R VSB 1/4
FORT WAYNE     FOG       53  53 100 E8        30.24R VSB 3/4
HUNTINGTON +   FOG       54  53  97 E6        30.22S VSB 1/2

$$

INZ028-029-035-036-043>045-051>053-061400-
WEST CENTRAL INDIANA

CITY           SKY/WX    TMP DP  RH WIND       PRES   REMARKS
CRAWFORDSVL +  MOSUNNY   66  50  55 S5        30.20R
GREENCASTLE +  SUNNY     66  54  63 CALM      30.21S
LAFAYETTE      CLOUDY    64  59  83 CALM      30.19R
TERRE HAUTE    SUNNY     67  56  67 SE3       30.20R

$$

INZ030>032-037>040-046>048-054>057-064-065-061400-
CENTRAL INDIANA

CITY           SKY/WX    TMP DP  RH WIND       PRES   REMARKS
ANDERSON       SUNNY     66  54  63 CALM      30.22
CP ATTERBURY + SUNNY     63  59  88 CALM      30.22R
COLUMBUS       SUNNY     63  55  77 CALM      30.22R
FISHERS *+     SUNNY     68  59  73 SW5       30.21
FRANKFORT +    MOSUNNY   66  61  83 SE3       30.21S
GREENWOOD *+   SUNNY     70  55  60 CALM      30.22R
INDIANAPOLIS   MOSUNNY   68  55  63 CALM      30.20R
-EAGLE CREEK   SUNNY     67  56  67 S3        30.21R
KOKOMO *+      MOSUNNY   57  55  94 E7        30.21S
MARION +       PTSUNNY   55  55 100 E3        30.22R FOG
MT COMFORT *+  SUNNY     68  48  49 S5        30.22R
SHELBYVILLE    SUNNY     70  57  63 CALM      30.21R
ZIONSVILLE +   SUNNY     67  57  70 S5        30.22R

$$

INZ033-034-041-042-049-050-058-059-061400-
EAST CENTRAL INDIANA

CITY           SKY/WX    TMP DP  RH WIND       PRES   REMARKS
MUNCIE         SUNNY     66  58  75 CALM      30.21R

$$

INZ060-061-067>069-081>083-085>088-061400-
SOUTHWEST INDIANA

CITY           SKY/WX    TMP DP  RH WIND       PRES   REMARKS
EVANSVILLE     SUNNY     66  57  72 CALM      30.20R
HUNTINGBURG *+ SUNNY     66  57  72 SE3       30.21R
WASHINGTON +   SUNNY     66  55  66 S5        30.20R

$$

INZ062-063-066-070>080-084-089>092-061400-
SOUTH CENTRAL AND SOUTHEAST INDIANA

CITY           SKY/WX    TMP DP  RH WIND       PRES   REMARKS
BLOOMINGTON    SUNNY     68  57  68 CALM      30.21R
MADISON *+     SUNNY     66  55  68 CALM      30.24S
NORTH VERNON + SUNNY     66  66 100 CALM      30.22R
SEYMOUR +      SUNNY     66  57  72 CALM      30.22R

$$



USA.gov is the U.S. government's official web portal to all federal, state and local government web resources and services.